Location: Santa Barbara
(34.4500°N, 119.7700°W)
Time: 12:56:25
(UTC-07:00)

Cosmos 1626 Rocket - Visible Passes

Search period start: 26 July 2016 00:00
Search period end: 05 August 2016 00:00
Orbit: 604 x 631 km, 82.5° (Epoch: 26 July)

Date Brightness Start Highest point End Pass type
(mag) Time Alt. Az. Time Alt. Az. Time Alt. Az.
26 Jul 6.2 01:05:41 10° N 01:06:53 18° N 01:06:53 18° N visible
27 Jul 6.3 01:22:41 10° NNW 01:23:33 15° NNW 01:23:33 15° NNW visible
28 Jul 6.3 00:02:25 10° NNE 00:03:07 13° NNE 00:03:07 13° NNE visible
28 Jul 6.6 01:40:07 10° NW 01:40:13 10° NW 01:40:13 10° NW visible
29 Jul 6.2 00:18:42 10° N 00:19:47 17° NNE 00:19:47 17° NNE visible
30 Jul 6.3 00:35:23 10° N 00:36:29 17° N 00:36:29 17° N visible
31 Jul 6.4 00:52:24 10° NNW 00:53:11 15° NNW 00:53:11 15° NNW visible
31 Jul 6.3 23:32:07 10° NNE 23:32:47 13° NNE 23:32:47 13° NNE visible
01 Aug 6.7 01:09:50 10° NW 01:09:54 10° NW 01:09:54 10° NW visible
01 Aug 6.1 23:48:24 10° N 23:49:31 17° NNE 23:49:31 17° NNE visible
03 Aug 6.2 00:05:06 10° N 00:06:15 18° N 00:06:15 18° N visible
04 Aug 6.4 00:22:07 10° NNW 00:22:59 15° NNW 00:22:59 15° NNW visible
04 Aug 6.1 23:01:49 10° NNE 23:02:38 14° NNE 23:02:38 14° NNE visible
